Satellite: ISS
Catalog number: 25544
Epoch time:      08304.49799380
Element set:     549
Inclination:      051.6426 deg
RA of node:       042.7042 deg
Eccentricity:    0.0003582
Arg of perigee:   279.9093 deg
Mean anomaly:     182.3738 deg
Mean motion:   15.72248135 rev/day
Decay rate:     1.0423e-04 rev/day^2
Epoch rev:           56982
Checksum:              319

Satellite: CO-58
Catalog number: 28895
Epoch time:      08303.61237191
Element set:    0157
Inclination:      098.0814 deg
RA of node:       194.3241 deg
Eccentricity:    0.0017636
Arg of perigee:   353.2460 deg
Mean anomaly:     006.8504 deg
Mean motion:   14.59708385 rev/day
Decay rate:        3.3e-07 rev/day^2
Epoch rev:           16009
Checksum:              308

Satellite: FALCON
Catalog number: 30776
Epoch time:      08303.68818387
Element set:     427
Inclination:      035.4333 deg
RA of node:       057.7190 deg
Eccentricity:    0.0000864
Arg of perigee:   024.2926 deg
Mean anomaly:     335.7831 deg
Mean motion:   15.03086916 rev/day
Decay rate:       3.65e-06 rev/day^2
Epoch rev:            9039
Checksum:              305

Satellite: MAST
Catalog number: 31126
Epoch time:      08303.20960784
Element set:    0449
Inclination:      098.0227 deg
RA of node:       002.1779 deg
Eccentricity:    0.0093678
Arg of perigee:   276.7039 deg
Mean anomaly:     082.3517 deg
Mean motion:   14.53453781 rev/day
Decay rate:       1.23e-06 rev/day^2
Epoch rev:           08148
Checksum:              304

Satellite: CAPE1
Catalog number: 31130
Epoch time:      08303.70805306
Element set:     441
Inclination:      098.0244 deg
RA of node:       001.3566 deg
Eccentricity:    0.0101824
Arg of perigee:   278.9416 deg
Mean anomaly:     080.0264 deg
Mean motion:   14.52001696 rev/day
Decay rate:       -7.0e-07 rev/day^2
Epoch rev:            8124
Checksum:              249

Satellite: COMPASS
Catalog number: 32787
Epoch time:      08303.39227820
Element set:    0198
Inclination:      097.9749 deg
RA of node:       002.7919 deg
Eccentricity:    0.0016947
Arg of perigee:   063.7860 deg
Mean anomaly:     296.5099 deg
Mean motion:   14.81484487 rev/day
Decay rate:       2.16e-06 rev/day^2
Epoch rev:           02727
Checksum:              347

Satellite: AAUSAT2
Catalog number: 32788
Epoch time:      08303.85139357
Element set:     186
Inclination:      097.9749 deg
RA of node:       003.2719 deg
Eccentricity:    0.0016627
Arg of perigee:   064.0816 deg
Mean anomaly:     296.2088 deg
Mean motion:   14.81596156 rev/day
Decay rate:      -1.69e-06 rev/day^2
Epoch rev:            2734
Checksum:              337

Satellite: DO-64
Catalog number: 32789
Epoch time:      08304.67579147
Element set:     197
Inclination:      097.9757 deg
RA of node:       004.1402 deg
Eccentricity:    0.0016709
Arg of perigee:   059.6474 deg
Mean anomaly:     300.6893 deg
Mean motion:   14.81513594 rev/day
Decay rate:       5.02e-06 rev/day^2
Epoch rev:            2746
Checksum:              336

Satellite: CO-66
Catalog number: 32791
Epoch time:      08303.41007460
Element set:    0181
Inclination:      097.9773 deg
RA of node:       002.8321 deg
Eccentricity:    0.0017333
Arg of perigee:   060.8391 deg
Mean anomaly:     299.4556 deg
Mean motion:   14.81335073 rev/day
Decay rate:       3.79e-06 rev/day^2
Epoch rev:           02724
Checksum:              301

Satellite: RS-30
Catalog number: 32953
Epoch time:      08303.74755498
Element set:    0146
Inclination:      082.5045 deg
RA of node:       039.9036 deg
Eccentricity:    0.0018163
Arg of perigee:   323.8421 deg
Mean anomaly:     036.1425 deg
Mean motion:   12.42997932 rev/day
Decay rate:        1.0e-07 rev/day^2
Epoch rev:           01976
Checksum:              299

/EX



_______________________________________________
Via the Keps mailing list courtesy of AMSAT-NA
http://amsat.org/mailman/listinfo/keps

--- ViaMAIL!/WC v1.60d
 * Origin: Chowdanet (401-724-4410) telnet://chowdanet.com  (1:323/120)